Date String (YYYY-MM-DD hh:mm:ss) UTC,Instrument flags,Ambient pressure (hPa),Sample flow (lpm),Bypass flow (lpm),Sample temperature (°C),Ambient temperature (°C),ASC tube jacket temperature (°C),LED temperature (°C),Box temperature (°C),Sample RH (%),Span deviation,Mass concentration (μg/m³),Mass concentration (μg/m³),Mass concentration (μg/m³)
DateTimeUTC,F1_M11,P_M11,Q1_M11,Q2_M11,T1_M11,T2_M11,T3_M11,T4_M11,T5_M11,U1_M11,ZSPAN_M11,X0_M11,X2_M11,X1_M11
2022-11-15 17:00:00,,0832.3,5.01,0.00,20.9,19.9,00.0,29.8,22.6,15.1,0000.5,0010.57,0008.18,0007.60
2022-11-15 17:01:00,,0832.3,5.01,0.00,21.0,21.4,00.0,29.8,22.9,14.9,0000.0,0010.44,0008.09,0007.55
2022-11-15 17:02:00,,0832.3,4.98,0.00,21.1,22.0,00.0,29.9,23.2,14.8,0000.0,0010.33,0007.99,0007.48
2022-11-15 17:03:00,,0832.4,5.01,0.00,21.2,21.5,00.0,29.9,23.1,14.7,0000.0,0010.24,0007.94,0007.45
2022-11-15 17:04:00,,0832.3,5.00,0.00,21.2,21.0,00.0,30.0,23.0,14.4,0000.0,0010.24,0007.91,0007.41
2022-11-15 17:05:00,,0832.3,4.99,0.00,21.2,20.6,00.0,30.0,23.0,14.5,0000.0,0010.59,0007.85,0007.37
2022-11-15 17:06:00,,0832.3,5.00,0.00,21.2,20.3,00.0,30.0,22.9,14.5,0000.0,0010.61,0007.76,0007.31
2022-11-15 17:07:00,,0832.2,5.00,0.00,21.2,20.1,00.0,30.1,22.9,14.6,0000.0,0010.79,0007.67,0007.26
2022-11-15 17:08:00,,0832.3,5.00,0.00,21.2,19.9,00.0,30.1,22.9,14.2,0000.0,0010.95,0007.62,0007.20
2022-11-15 17:09:00,,0832.2,5.01,0.00,21.2,19.8,00.0,30.1,22.9,14.1,0000.0,0010.80,0007.53,0007.15
2022-11-15 17:10:00,,0832.2,5.01,0.00,21.2,19.7,00.0,30.1,22.9,14.3,0000.0,0010.74,0007.50,0007.12
2022-11-15 17:11:00,,0832.3,5.00,0.00,21.1,19.5,00.0,30.1,22.8,14.1,0000.0,0010.71,0007.45,0007.09
2022-11-15 17:12:00,,0832.2,4.99,0.00,21.1,19.4,00.0,30.1,22.7,14.1,0000.0,0010.70,0007.41,0007.04
2022-11-15 17:13:00,,0832.2,4.99,0.00,21.1,19.4,00.0,30.1,22.7,14.3,0000.0,0010.70,0007.40,0007.03
2022-11-15 17:14:00,,0832.2,5.00,0.00,21.1,19.4,00.0,30.1,22.7,14.4,0000.0,0010.76,0007.41,0007.02
2022-11-15 17:15:00,,0832.2,5.01,0.00,21.0,19.4,00.0,30.0,22.7,14.9,0000.0,0010.78,0007.41,0007.01
2022-11-15 17:16:00,,0832.3,5.01,0.00,21.0,19.4,00.0,30.0,22.7,14.8,0000.0,0010.45,0007.43,0007.00
2022-11-15 17:17:00,,0832.2,4.99,0.00,21.0,19.4,00.0,30.0,22.7,15.1,0000.0,0010.33,0007.48,0007.03
2022-11-15 17:18:00,,0832.3,4.99,0.00,21.0,19.4,00.0,30.0,22.7,14.9,0000.0,0010.75,0007.57,0007.09
2022-11-15 17:19:00,,0832.3,5.00,0.00,21.0,19.4,00.0,30.0,22.6,14.5,0000.0,0010.50,0007.61,0007.14
2022-11-15 17:20:00,,0832.2,5.01,0.00,20.9,19.3,00.0,30.0,22.6,14.4,0000.0,0010.67,0007.71,0007.20
2022-11-15 17:21:00,,0832.2,5.00,0.00,20.9,19.3,00.0,30.0,22.6,15.0,0000.0,0010.83,0007.79,0007.25
2022-11-15 17:22:00,,0832.2,5.00,0.00,20.9,19.2,00.0,30.0,22.5,14.9,0000.0,0011.42,0007.86,0007.30
2022-11-15 17:23:00,,0832.1,4.99,0.00,20.9,19.2,00.0,29.9,22.5,14.6,0000.0,0011.49,0007.90,0007.36
2022-11-15 17:24:00,,0832.1,4.99,0.00,20.8,19.3,00.0,29.9,22.5,14.6,0000.0,0011.65,0007.96,0007.42
2022-11-15 17:25:00,,0832.2,5.02,0.00,20.9,20.5,00.0,29.9,22.8,14.4,0000.0,0012.08,0008.02,0007.47
2022-11-15 17:26:00,,0832.1,4.99,0.00,21.1,21.8,00.0,29.8,23.1,14.3,0000.0,0012.33,0008.11,0007.53
2022-11-15 17:27:00,,0832.1,4.99,0.00,21.2,21.8,00.0,29.9,23.2,14.7,0000.0,0012.36,0008.16,0007.57
2022-11-15 17:28:00,,0832.1,5.00,0.00,21.2,21.3,00.0,30.0,23.2,14.7,0000.0,0012.31,0008.18,0007.60
2022-11-15 17:29:00,,0832.1,5.00,0.00,21.3,20.9,00.0,30.0,23.1,14.2,0000.0,0012.21,0008.19,0007.60
2022-11-15 17:30:00,,0832.1,5.00,0.00,21.2,20.4,00.0,30.1,23.0,13.9,0000.0,0012.47,0008.22,0007.61
2022-11-15 17:31:00,,0832.1,5.00,0.00,21.2,20.1,00.0,30.1,22.9,13.8,0000.0,0012.44,0008.21,0007.60
2022-11-15 17:32:00,,0832.1,5.00,0.00,21.2,19.8,00.0,30.1,22.8,13.8,0000.0,0012.36,0008.17,0007.58
2022-11-15 17:33:00,,0832.1,5.00,0.00,21.1,19.7,00.0,30.1,22.7,14.0,0000.0,0011.83,0008.13,0007.55
2022-11-15 17:34:00,,0832.1,5.00,0.00,21.1,19.5,00.0,30.1,22.7,14.4,0000.0,0012.36,0008.10,0007.52
2022-11-15 17:35:00,,0832.1,5.00,0.00,21.1,19.5,00.0,30.1,22.7,14.3,0000.0,0012.15,0008.02,0007.46
2022-11-15 17:36:00,,0832.1,5.00,0.00,21.0,19.4,00.0,30.1,22.7,14.0,0000.0,0011.66,0007.94,0007.40
2022-11-15 17:37:00,,0832.1,5.00,0.00,21.0,19.4,00.0,30.1,22.6,14.0,0000.0,0011.32,0007.79,0007.33
2022-11-15 17:38:00,,0832.1,5.00,0.00,21.0,19.3,00.0,30.1,22.6,14.1,0000.0,0011.31,0007.68,0007.26
2022-11-15 17:39:00,,0832.1,5.01,0.00,20.9,19.2,00.0,30.0,22.5,13.9,0000.0,0011.31,0007.58,0007.20
2022-11-15 17:40:00,,0832.1,5.00,0.00,20.9,19.2,00.0,30.0,22.5,14.7,0000.0,0010.91,0007.49,0007.12
2022-11-15 17:41:00,,0832.0,5.01,0.00,20.9,19.1,00.0,30.0,22.5,14.0,0000.0,0010.66,0007.40,0007.05
2022-11-15 17:42:00,,0832.1,5.00,0.00,20.8,19.1,00.0,30.0,22.4,13.9,0000.0,0010.64,0007.31,0006.96
2022-11-15 17:43:00,,0832.1,5.00,0.00,20.8,19.0,00.0,29.9,22.4,13.8,0000.0,0010.57,0007.22,0006.86
2022-11-15 17:44:00,,0832.1,4.99,0.00,20.8,19.0,00.0,29.9,22.3,13.8,0000.0,0010.52,0007.15,0006.79
2022-11-15 17:45:00,,0832.1,5.00,0.00,20.7,19.0,00.0,29.9,22.3,14.3,0000.0,0010.16,0007.06,0006.71
2022-11-15 17:46:00,,0832.1,5.00,0.00,20.7,19.3,00.0,29.9,22.4,14.7,0000.0,0010.56,0007.02,0006.64
2022-11-15 17:47:00,,0832.1,5.02,0.00,20.8,20.7,00.0,29.8,22.7,13.9,0000.0,0010.91,0006.97,0006.57
2022-11-15 17:48:00,,0832.1,4.99,0.00,21.0,21.9,00.0,29.8,23.1,13.7,0000.0,0010.91,0006.92,0006.51
2022-11-15 17:49:00,,0832.1,4.98,0.00,21.1,21.6,00.0,29.9,23.1,13.7,0000.0,0010.68,0006.84,0006.43
2022-11-15 17:50:00,,0832.1,5.00,0.00,21.1,21.1,00.0,30.0,23.0,13.6,0000.0,0010.46,0006.79,0006.38
2022-11-15 17:51:00,,0832.1,5.00,0.00,21.1,20.6,00.0,30.0,23.0,14.2,0000.0,0010.43,0006.71,0006.31
2022-11-15 17:52:00,,0832.1,5.01,0.00,21.1,20.3,00.0,30.0,22.9,14.3,0000.0,0010.29,0006.65,0006.24
2022-11-15 17:53:00,,0832.1,5.00,0.00,21.1,20.1,00.0,30.0,22.9,14.0,0000.6,0010.14,0006.59,0006.20
2022-11-15 17:54:00,,0832.1,5.00,0.00,21.1,20.0,00.0,30.0,22.8,14.0,0000.0,0010.08,0006.56,0006.18
2022-11-15 17:55:00,,0832.1,5.00,0.00,21.1,19.9,00.0,30.0,22.8,13.5,0000.0,0010.42,0006.50,0006.15
2022-11-15 17:56:00,,0832.1,5.00,0.00,21.1,19.7,00.0,30.0,22.7,13.3,0000.0,0010.23,0006.46,0006.12
2022-11-15 17:57:00,,0832.1,4.99,0.00,21.1,19.6,00.0,30.0,22.7,14.1,0000.0,0009.73,0006.42,0006.10
2022-11-15 17:58:00,,0832.1,5.00,0.00,21.0,19.6,00.0,30.0,22.7,14.2,0000.0,0009.73,0006.39,0006.07
2022-11-15 17:59:00,,0832.1,5.00,0.00,21.0,19.6,00.0,30.0,22.7,14.3,0000.0,0010.28,0006.40,0006.07
